User: anonymous   Login
Location: Seattle
(47.6064°N, 122.3308°W)
Time: 23:23:53
(UTC-07:00)
Language:

COSMOS 2251 DEB - Orbit

View from above orbital plane
View from above orbital plane
View from above satellite
View from above satellite

Ground track
Ground track

The orbit data is extracted from the following two-line orbital elements,

1 34061U 93036JY  24141.71773159  .00002728  00000-0  90668-3 0  9998
2 34061  74.0414 237.1959 0020115  96.5145  24.5508 14.38078256799790
Epoch (UTC): 20 May 2024 17:13:32
Eccentricity: 0.0020115
inclination: 74.0414°
perigee height: 750 km
apogee height: 779 km
right ascension of ascending node: 237.1959°
argument of perigee: 96.5145°
revolutions per day: 14.38078256
mean anomaly at epoch: 24.5508°
orbit number at epoch: 79979

The dashed part of the orbit path shows where the satellite is in the earth's shadow,  

DLR